• In Portugal
  • List of Countries
  • For 7 days
  • Water Temperature
  • Satellite Maps
  • Weather Map
  • Weather Widgets
  • user-avatar
    Login

    Hourly Weather Windhuk

    Today, 24 February, Saturday

    Time Temperature Precipitation Wind Pressure Humidity
    00:00 +23°C° 0 mm 2 mps 620 mmHg 44%
    01:00 +23°C° 0 mm 2 mps 620 mmHg 45%
    02:00 +21°C° 0 mm 2 mps 620 mmHg 46%
    03:00 +21°C° 0 mm 2 mps 620 mmHg 47%
    04:00 +20°C° 0 mm 2 mps 619 mmHg 49%
    05:00 +21°C° 0 mm 2 mps 620 mmHg 47%
    06:00 +21°C° 0 mm 2 mps 620 mmHg 45%
    07:00 +23°C° 0 mm 2 mps 621 mmHg 43%
    08:00 +24°C° 0 mm 2 mps 621 mmHg 39%
    09:00 +25°C° 0 mm 2 mps 621 mmHg 35%
    10:00 +26°C° 0 mm 2 mps 622 mmHg 31%
    11:00 +28°C° 0 mm 2 mps 622 mmHg 29%
    12:00 +29°C° 0 mm 2 mps 622 mmHg 26%
    13:00 +30°C° 0 mm 2 mps 622 mmHg 24%
    14:00 +30°C° 0 mm 3 mps 622 mmHg 23%
    15:00 +32°C° 0 mm 4 mps 622 mmHg 22%
    16:00 +32°C° 0 mm 5 mps 621 mmHg 21%
    17:00 +29°C° 0 mm 6 mps 621 mmHg 21%
    18:00 +27°C° 0 mm 6 mps 621 mmHg 21%
    19:00 +24°C° 0 mm 6 mps 621 mmHg 22%
    20:00 +23°C° 0 mm 5 mps 621 mmHg 24%
    21:00 +21°C° 0 mm 4 mps 621 mmHg 26%
    22:00 +20°C° 0 mm 3 mps 621 mmHg 28%
    23:00 +20°C° 0 mm 2 mps 621 mmHg 30%

    Tomorrow, 25 February, Sunday

    Time Temperature Precipitation Wind Pressure Humidity
    00:00 +19°C° 0 mm 2 mps 621 mmHg 32%
    01:00 +18°C° 0 mm 2 mps 621 mmHg 34%
    02:00 +18°C° 0 mm 2 mps 621 mmHg 35%
    03:00 +18°C° 0 mm 2 mps 621 mmHg 36%
    04:00 +17°C° 0 mm 2 mps 621 mmHg 37%
    05:00 +18°C° 0 mm 3 mps 621 mmHg 35%
    06:00 +19°C° 0 mm 3 mps 622 mmHg 34%
    07:00 +19°C° 0 mm 4 mps 622 mmHg 32%
    08:00 +21°C° 0 mm 4 mps 623 mmHg 31%
    09:00 +23°C° 0 mm 5 mps 623 mmHg 29%
    10:00 +27°C° 0 mm 5 mps 624 mmHg 28%
    11:00 +28°C° 0 mm 4 mps 624 mmHg 26%
    12:00 +29°C° 0 mm 4 mps 623 mmHg 24%
    13:00 +30°C° 0 mm 3 mps 623 mmHg 22%
    14:00 +30°C° 0 mm 2 mps 622 mmHg 21%
    15:00 +31°C° 0 mm 2 mps 622 mmHg 20%
    16:00 +31°C° 0 mm 1 mps 622 mmHg 19%
    17:00 +30°C° 0 mm 2 mps 622 mmHg 22%
    18:00 +28°C° 0 mm 2 mps 621 mmHg 24%
    19:00 +27°C° 0 mm 3 mps 621 mmHg 27%
    20:00 +26°C° 0 mm 3 mps 622 mmHg 29%
    21:00 +25°C° 0 mm 2 mps 622 mmHg 31%
    22:00 +24°C° 0 mm 2 mps 622 mmHg 33%
    23:00 +23°C° 0 mm 2 mps 622 mmHg 35%

    Day after tomorrow, 26 February, Monday

    Time Temperature Precipitation Wind Pressure Humidity
    00:00 +21°C° 0 mm 2 mps 622 mmHg 36%
    01:00 +20°C° 0 mm 2 mps 621 mmHg 38%
    02:00 +20°C° 0 mm 2 mps 621 mmHg 38%
    03:00 +20°C° 0 mm 1 mps 620 mmHg 38%
    04:00 +19°C° 0 mm 1 mps 620 mmHg 38%
    05:00 +20°C° 0 mm 1 mps 621 mmHg 36%
    06:00 +21°C° 0 mm 1 mps 622 mmHg 33%
    07:00 +22°C° 0 mm 1 mps 622 mmHg 30%
    08:00 +24°C° 0 mm 3 mps 623 mmHg 26%
    09:00 +27°C° 0 mm 4 mps 624 mmHg 22%
    10:00 +29°C° 0 mm 6 mps 625 mmHg 19%
    11:00 +30°C° 0 mm 5 mps 624 mmHg 18%
    12:00 +32°C° 0 mm 5 mps 624 mmHg 17%
    13:00 +33°C° 0 mm 4 mps 624 mmHg 16%
    14:00 +33°C° 0 mm 4 mps 623 mmHg 15%
    15:00 +33°C° 0 mm 3 mps 623 mmHg 15%
    16:00 +32°C° 0 mm 2 mps 622 mmHg 14%
    17:00 +30°C° 0 mm 2 mps 622 mmHg 18%
    18:00 +28°C° 0 mm 2 mps 622 mmHg 22%
    19:00 +26°C° 0 mm 2 mps 621 mmHg 26%
    20:00 +25°C° 0 mm 2 mps 622 mmHg 28%
    21:00 +24°C° 0 mm 2 mps 622 mmHg 30%
    22:00 +23°C° 0 mm 2 mps 622 mmHg 32%
    23:00 +21°C° 0 mm 2 mps 622 mmHg 36%

    27 February, Tuesday

    Time Temperature Precipitation Wind Pressure Humidity
    00:00 +20°C° 0 mm 2 mps 621 mmHg 41%
    01:00 +20°C° 0 mm 1 mps 621 mmHg 45%
    02:00 +20°C° 0 mm 1 mps 621 mmHg 49%
    03:00 +18°C° 0 mm 2 mps 621 mmHg 53%
    04:00 +18°C° 0 mm 2 mps 620 mmHg 57%
    05:00 +18°C° 0 mm 2 mps 621 mmHg 58%
    06:00 +19°C° 0 mm 2 mps 622 mmHg 58%
    07:00 +20°C° 0 mm 3 mps 622 mmHg 59%
    08:00 +22°C° 0 mm 3 mps 623 mmHg 53%
    09:00 +25°C° 0 mm 4 mps 624 mmHg 47%
    10:00 +27°C° 0 mm 5 mps 625 mmHg 41%
    11:00 +29°C° 0 mm 4 mps 624 mmHg 36%
    12:00 +30°C° 0 mm 3 mps 624 mmHg 31%
    13:00 +31°C° 0 mm 3 mps 623 mmHg 25%
    14:00 +30°C° 0 mm 2 mps 623 mmHg 26%
    15:00 +30°C° 0 mm 2 mps 622 mmHg 26%
    16:00 +29°C° 0 mm 1 mps 622 mmHg 27%
    17:00 +28°C° 0 mm 2 mps 622 mmHg 31%
    18:00 +27°C° 0 mm 3 mps 622 mmHg 35%
    19:00 +25°C° 0 mm 3 mps 622 mmHg 38%
    20:00 +25°C° 0 mm 3 mps 622 mmHg 40%
    21:00 +24°C° 0 mm 2 mps 622 mmHg 42%
    22:00 +23°C° 0 mm 2 mps 623 mmHg 45%
    23:00 +23°C° 0 mm 2 mps 622 mmHg 46%

    28 February, Wednesday

    Time Temperature Precipitation Wind Pressure Humidity
    00:00 +21°C° 0 mm 2 mps 622 mmHg 47%
    01:00 +21°C° 0 mm 2 mps 622 mmHg 49%
    02:00 +20°C° 0 mm 2 mps 622 mmHg 53%
    03:00 +20°C° 0 mm 2 mps 622 mmHg 57%
    04:00 +20°C° 0 mm 1 mps 621 mmHg 61%
    05:00 +20°C° 0 mm 1 mps 622 mmHg 60%
    06:00 +21°C° 0 mm 1 mps 622 mmHg 60%
    07:00 +22°C° 0 mm 1 mps 623 mmHg 59%
    08:00 +23°C° 0 mm 2 mps 623 mmHg 51%
    09:00 +25°C° 0 mm 2 mps 624 mmHg 44%
    10:00 +27°C° 0 mm 2 mps 624 mmHg 37%
    11:00 +28°C° 0 mm 2 mps 624 mmHg 32%
    12:00 +30°C° 0 mm 3 mps 624 mmHg 28%
    13:00 +31°C° 0 mm 3 mps 623 mmHg 24%
    14:00 +31°C° 0 mm 3 mps 623 mmHg 24%
    15:00 +32°C° 0 mm 4 mps 623 mmHg 23%
    16:00 +32°C° 0 mm 4 mps 622 mmHg 23%
    17:00 +29°C° 0 mm 5 mps 622 mmHg 28%
    18:00 +27°C° 0 mm 5 mps 622 mmHg 32%
    19:00 +26°C° 0 mm 5 mps 622 mmHg 37%
    20:00 +25°C° 0 mm 4 mps 622 mmHg 41%
    21:00 +24°C° 0 mm 3 mps 622 mmHg 44%
    22:00 +21°C° 0 mm 2 mps 622 mmHg 48%
    23:00 +21°C° 0 mm 2 mps 622 mmHg 51%

    1 March, Thursday

    Time Temperature Precipitation Wind Pressure Humidity
    00:00 +20°C° 0 mm 2 mps 621 mmHg 54%
    01:00 +21°C° 0 mm 1 mps 621 mmHg 57%
    02:00 +20°C° 0 mm 1 mps 621 mmHg 60%
    03:00 +20°C° 0 mm 1 mps 620 mmHg 64%
    04:00 +19°C° 0 mm 1 mps 620 mmHg 67%
    05:00 +20°C° 0 mm 1 mps 621 mmHg 64%
    06:00 +21°C° 0 mm 1 mps 622 mmHg 61%
    07:00 +22°C° 0 mm 1 mps 622 mmHg 58%
    08:00 +23°C° 0 mm 1 mps 623 mmHg 52%
    09:00 +25°C° 0 mm 1 mps 623 mmHg 47%
    10:00 +27°C° 0 mm 2 mps 623 mmHg 41%
    11:00 +27°C° 0 mm 2 mps 623 mmHg 39%
    12:00 +28°C° 0 mm 2 mps 623 mmHg 38%
    13:00 +28°C° 0 mm 3 mps 622 mmHg 36%
    14:00 +28°C° 0 mm 3 mps 622 mmHg 37%
    15:00 +28°C° 0 mm 3 mps 621 mmHg 38%
    16:00 +28°C° 0 mm 3 mps 621 mmHg 39%
    17:00 +27°C° 0.1 mm 3 mps 621 mmHg 41%
    18:00 +26°C° 0.1 mm 3 mps 621 mmHg 44%
    19:00 +25°C° 0.1 mm 3 mps 620 mmHg 46%
    20:00 +24°C° 0.1 mm 2 mps 620 mmHg 49%
    21:00 +23°C° 0.1 mm 2 mps 620 mmHg 52%
    22:00 +21°C° 0.1 mm 2 mps 620 mmHg 56%
    23:00 +20°C° 0 mm 2 mps 620 mmHg 56%
    Show more